Location: ????????
(55.4000°N, 39.1167°E)
Time: 06:00:20
(UTC+00:00)

NOSS 3-2 (C) - Pass Details

Date: 19 May 2025
Orbit: 686 x 1523 km, 63.4° (Epoch: 04 June)

Event Time Altitude Azimuth Distance (km) Brightness Sun altitude
Rises 21:07:24 0° 303° (WNW) 3,624 7.0 -14.6°
Reaches altitude 10° 21:09:47 10° 307° (NW) 2,786 6.4 -14.6°
Maximum altitude 21:16:25 63° 28° (NNE) 1,291 4.4 -14.6°
Drops below altitude 10° 21:24:33 10° 109° (ESE) 3,392 6.1 -14.6°
Sets 21:27:44 0° 113° (ESE) 4,463 6.7 -14.6°
